• In Latvia
  • List of Countries
  • For 7 days
  • Water Temperature
  • Satellite Maps
  • Weather Map
  • Weather Widgets
  • user-avatar
    Login

    Hourly Weather Mendoza

    Today, 26 March, Sunday

    Time Temperature Precipitation Wind Pressure Humidity
    00:00 +23°C° 0.5 mm 1 mps 696 mmHg 66%
    01:00 +23°C° 0 mm 1 mps 696 mmHg 68%
    02:00 +22°C° 0.2 mm 1 mps 695 mmHg 68%
    03:00 +22°C° 0.2 mm 1 mps 695 mmHg 68%
    04:00 +21°C° 0.2 mm 1 mps 695 mmHg 68%
    05:00 +22°C° 0.1 mm 1 mps 696 mmHg 65%
    06:00 +23°C° 0.1 mm 1 mps 696 mmHg 61%
    07:00 +23°C° 0.1 mm 1 mps 696 mmHg 58%
    08:00 +25°C° 0 mm 2 mps 696 mmHg 52%
    09:00 +26°C° 0 mm 2 mps 696 mmHg 47%
    10:00 +28°C° 0 mm 2 mps 697 mmHg 41%
    11:00 +29°C° 0 mm 2 mps 696 mmHg 38%
    12:00 +30°C° 0 mm 3 mps 696 mmHg 36%
    13:00 +31°C° 0 mm 3 mps 696 mmHg 33%
    14:00 +31°C° 0 mm 3 mps 696 mmHg 34%
    15:00 +31°C° 0 mm 3 mps 696 mmHg 34%
    16:00 +31°C° 0 mm 3 mps 695 mmHg 35%
    17:00 +29°C° 0.4 mm 2 mps 696 mmHg 42%
    18:00 +27°C° 0.4 mm 2 mps 696 mmHg 48%
    19:00 +26°C° 0.4 mm 1 mps 696 mmHg 55%
    20:00 +25°C° 0.5 mm 2 mps 697 mmHg 57%
    21:00 +25°C° 0.5 mm 2 mps 697 mmHg 59%
    22:00 +24°C° 0.5 mm 2 mps 698 mmHg 62%
    23:00 +24°C° 0.9 mm 2 mps 698 mmHg 66%

    Tomorrow, 27 March, Monday

    Time Temperature Precipitation Wind Pressure Humidity
    00:00 +23°C° 0.9 mm 2 mps 698 mmHg 71%
    01:00 +21°C° 0.9 mm 2 mps 698 mmHg 76%
    02:00 +21°C° 0.3 mm 2 mps 697 mmHg 75%
    03:00 +21°C° 0.3 mm 2 mps 697 mmHg 74%
    04:00 +21°C° 0.3 mm 2 mps 697 mmHg 73%
    05:00 +21°C° 0 mm 2 mps 697 mmHg 70%
    06:00 +23°C° 0 mm 2 mps 698 mmHg 66%
    07:00 +23°C° 0 mm 2 mps 698 mmHg 63%
    08:00 +25°C° 0 mm 2 mps 698 mmHg 58%
    09:00 +26°C° 0 mm 3 mps 698 mmHg 53%
    10:00 +27°C° 0 mm 3 mps 699 mmHg 48%
    11:00 +28°C° 0 mm 3 mps 698 mmHg 46%
    12:00 +29°C° 0 mm 3 mps 698 mmHg 44%
    13:00 +30°C° 0 mm 3 mps 697 mmHg 42%
    14:00 +30°C° 0.1 mm 3 mps 697 mmHg 44%
    15:00 +30°C° 0.1 mm 3 mps 697 mmHg 45%
    16:00 +30°C° 0.1 mm 3 mps 697 mmHg 46%
    17:00 +28°C° 1 mm 2 mps 697 mmHg 52%
    18:00 +27°C° 1 mm 1 mps 697 mmHg 59%
    19:00 +26°C° 1 mm 1 mps 697 mmHg 66%
    20:00 +25°C° 0.7 mm 1 mps 698 mmHg 68%
    21:00 +25°C° 0.7 mm 1 mps 698 mmHg 70%
    22:00 +24°C° 0.7 mm 2 mps 698 mmHg 72%
    23:00 +24°C° 0.9 mm 2 mps 698 mmHg 75%

    Day after tomorrow, 28 March, Tuesday

    Time Temperature Precipitation Wind Pressure Humidity
    00:00 +23°C° 0.9 mm 2 mps 698 mmHg 77%
    01:00 +23°C° 0.9 mm 2 mps 698 mmHg 80%
    02:00 +21°C° 0.1 mm 2 mps 698 mmHg 78%
    03:00 +21°C° 0.1 mm 2 mps 698 mmHg 76%
    04:00 +21°C° 0.1 mm 2 mps 697 mmHg 74%
    05:00 +21°C° 0 mm 2 mps 698 mmHg 71%
    06:00 +23°C° 0 mm 2 mps 698 mmHg 68%
    07:00 +23°C° 0 mm 2 mps 698 mmHg 65%
    08:00 +25°C° 0 mm 2 mps 699 mmHg 60%
    09:00 +26°C° 0 mm 2 mps 699 mmHg 56%
    10:00 +28°C° 0 mm 3 mps 699 mmHg 51%
    11:00 +29°C° 0 mm 3 mps 698 mmHg 48%
    12:00 +30°C° 0 mm 4 mps 698 mmHg 45%
    13:00 +32°C° 0 mm 4 mps 698 mmHg 43%
    14:00 +30°C° 0 mm 4 mps 697 mmHg 45%
    15:00 +30°C° 0 mm 4 mps 697 mmHg 47%
    16:00 +30°C° 0 mm 3 mps 696 mmHg 49%
    17:00 +29°C° 0.4 mm 3 mps 697 mmHg 56%
    18:00 +27°C° 0.4 mm 3 mps 697 mmHg 64%
    19:00 +26°C° 0.4 mm 2 mps 697 mmHg 72%
    20:00 +25°C° 1.3 mm 2 mps 697 mmHg 76%
    21:00 +25°C° 1.3 mm 2 mps 698 mmHg 79%
    22:00 +24°C° 1.3 mm 2 mps 698 mmHg 83%
    23:00 +24°C° 0.7 mm 2 mps 697 mmHg 83%

    29 March, Wednesday

    Time Temperature Precipitation Wind Pressure Humidity
    00:00 +24°C° 0.7 mm 1 mps 697 mmHg 83%
    01:00 +23°C° 0.7 mm 1 mps 697 mmHg 83%
    02:00 +23°C° 0.1 mm 1 mps 696 mmHg 82%
    03:00 +22°C° 0.1 mm 1 mps 696 mmHg 81%
    04:00 +22°C° 0.1 mm 1 mps 695 mmHg 80%
    05:00 +23°C° 0 mm 1 mps 696 mmHg 77%
    06:00 +23°C° 0 mm 1 mps 696 mmHg 74%
    07:00 +24°C° 0 mm 1 mps 696 mmHg 71%
    08:00 +25°C° 0 mm 2 mps 696 mmHg 66%
    09:00 +26°C° 0 mm 2 mps 696 mmHg 61%
    10:00 +28°C° 0 mm 3 mps 696 mmHg 56%
    11:00 +29°C° 0 mm 3 mps 695 mmHg 53%
    12:00 +29°C° 0 mm 3 mps 695 mmHg 50%
    13:00 +30°C° 0 mm 3 mps 694 mmHg 48%
    14:00 +30°C° 1.2 mm 3 mps 694 mmHg 50%
    15:00 +30°C° 1.2 mm 2 mps 694 mmHg 52%
    16:00 +29°C° 1.2 mm 2 mps 694 mmHg 54%
    17:00 +28°C° 2 mm 2 mps 694 mmHg 58%
    18:00 +27°C° 2 mm 2 mps 695 mmHg 63%
    19:00 +25°C° 2 mm 3 mps 695 mmHg 68%
    20:00 +25°C° 0.8 mm 3 mps 695 mmHg 66%
    21:00 +24°C° 0.8 mm 3 mps 696 mmHg 65%
    22:00 +23°C° 0.8 mm 4 mps 696 mmHg 64%
    23:00 +22°C° 0.2 mm 4 mps 696 mmHg 64%

    30 March, Thursday

    Time Temperature Precipitation Wind Pressure Humidity
    00:00 +21°C° 0.2 mm 4 mps 696 mmHg 65%
    01:00 +21°C° 0.2 mm 4 mps 696 mmHg 66%
    02:00 +20°C° 0 mm 4 mps 697 mmHg 68%
    03:00 +20°C° 0 mm 3 mps 697 mmHg 70%
    04:00 +19°C° 0 mm 3 mps 697 mmHg 73%
    05:00 +19°C° 0 mm 3 mps 698 mmHg 71%
    06:00 +20°C° 0 mm 4 mps 698 mmHg 69%
    07:00 +20°C° 0 mm 4 mps 699 mmHg 68%
    08:00 +21°C° 0 mm 4 mps 699 mmHg 62%
    09:00 +22°C° 0 mm 4 mps 699 mmHg 56%
    10:00 +23°C° 0 mm 4 mps 699 mmHg 50%
    11:00 +23°C° 0 mm 4 mps 698 mmHg 47%
    12:00 +25°C° 0 mm 4 mps 697 mmHg 45%
    13:00 +26°C° 0 mm 4 mps 697 mmHg 42%
    14:00 +26°C° 0 mm 4 mps 697 mmHg 44%
    15:00 +26°C° 0 mm 4 mps 696 mmHg 45%
    16:00 +25°C° 0 mm 3 mps 696 mmHg 46%
    17:00 +24°C° 0 mm 3 mps 697 mmHg 52%
    18:00 +23°C° 0 mm 2 mps 697 mmHg 57%
    19:00 +21°C° 0 mm 2 mps 698 mmHg 62%
    20:00 +21°C° 0 mm 2 mps 698 mmHg 64%
    21:00 +20°C° 0 mm 2 mps 698 mmHg 65%
    22:00 +20°C° 0 mm 2 mps 698 mmHg 67%
    23:00 +19°C° 0 mm 2 mps 698 mmHg 69%

    31 March, Friday

    Time Temperature Precipitation Wind Pressure Humidity
    00:00 +19°C° 0 mm 2 mps 698 mmHg 71%
    01:00 +19°C° 0 mm 2 mps 697 mmHg 73%
    02:00 +18°C° 0 mm 2 mps 697 mmHg 73%
    03:00 +18°C° 0 mm 2 mps 697 mmHg 74%
    04:00 +18°C° 0 mm 2 mps 697 mmHg 75%
    05:00 +18°C° 0 mm 2 mps 697 mmHg 73%
    06:00 +18°C° 0 mm 2 mps 697 mmHg 71%
    07:00 +19°C° 0 mm 2 mps 698 mmHg 69%
    08:00 +20°C° 0 mm 2 mps 698 mmHg 65%
    09:00 +21°C° 0 mm 2 mps 698 mmHg 61%
    10:00 +23°C° 0 mm 2 mps 698 mmHg 57%
    11:00 +24°C° 0 mm 2 mps 697 mmHg 55%
    12:00 +25°C° 0 mm 2 mps 697 mmHg 53%
    13:00 +26°C° 0 mm 2 mps 696 mmHg 51%
    14:00 +26°C° 0 mm 2 mps 696 mmHg 52%
    15:00 +26°C° 0 mm 2 mps 696 mmHg 53%
    16:00 +26°C° 0 mm 2 mps 696 mmHg 54%
    17:00 +25°C° 0 mm 2 mps 697 mmHg 59%
    18:00 +24°C° 0 mm 2 mps 698 mmHg 64%
    19:00 +23°C° 0 mm 2 mps 698 mmHg 69%
    20:00 +21°C° 0 mm 2 mps 698 mmHg 71%
    21:00 +21°C° 0 mm 2 mps 698 mmHg 73%
    22:00 +21°C° 0 mm 3 mps 698 mmHg 75%
    23:00 +20°C° 0 mm 3 mps 698 mmHg 77%
    Show more